FW5672 Weather Reports


time (UTC)temp
F
wind
direction
speed
knots
gust
knots
rain 1hr
in
rain 24hr
in
rain mn
in
humidity
%
barometer
mb
20260507223045 74 290 7.0 13.9 0.00 0.00 0.00 32 1017.2
20260507221532 74 311 7.0 13.9 0.00 0.00 0.00 33 1017.4
20260507220034 72 311 7.0 13.0 0.00 0.00 0.00 33 1017.6
20260507214533 72 314 7.8 15.6 0.00 0.00 0.00 34 1017.7
20260507213031 72 323 7.8 13.9 0.00 0.00 0.00 35 1017.8
20260507211547 72 294 6.1 13.9 0.00 0.00 0.00 35 1017.9
20260507210030 72 301 7.8 13.0 0.00 0.00 0.00 36 1018.0
20260507204533 71 303 5.2 10.4 0.00 0.00 0.00 37 1018.3
20260507203032 70 333 4.3 9.6 0.00 0.00 0.00 37 1018.5
20260507201532 71 344 5.2 11.3 0.00 0.00 0.00 38 1018.6
20260507200106 72 356 4.3 11.3 0.00 0.00 0.00 37 1018.7
20260507194530 71 295 3.5 9.6 0.00 0.00 0.00 39 1018.8
20260507193033 69 301 3.5 8.7 0.00 0.00 0.00 42 1018.9
20260507191529 67 292 3.5 8.7 0.00 0.00 0.00 45 1019.1
20260507190029 66 336 3.5 8.7 0.00 0.00 0.00 48 1019.2
20260507184533 64 304 3.5 7.8 0.00 0.00 0.00 51 1019.3
20260507183038 63 259 4.3 8.7 0.00 0.00 0.00 53 1019.5
20260507181532 62 283 4.3 9.6 0.00 0.00 0.00 54 1019.6
20260507180029 63 313 4.3 9.6 0.00 0.00 0.00 55 1019.8
20260507174531 62 320 3.5 8.7 0.00 0.00 0.00 57 1019.7
20260507173029 62 300 4.3 7.0 0.00 0.00 0.00 57 1019.9
20260507171529 62 332 5.2 9.6 0.00 0.00 0.00 56 1020.0
20260507170033 64 333 6.1 13.0 0.00 0.00 0.00 56 1020.0
20260507164532 63 310 3.5 9.6 0.00 0.00 0.00 60 1020.0
20260507161532 61 241 3.5 7.0 0.00 0.00 0.00 64 1020.1
20260507160033 60 248 3.5 7.0 0.00 0.00 0.00 66 1020.4
20260507154533 59 220 4.3 7.0 0.00 0.00 0.00 67 1020.5
20260507153107 59 205 3.5 6.1 0.00 0.00 0.00 68 1020.6
20260507151531 58 108 0.0 3.5 0.00 0.00 0.00 72 1020.7
20260507150036 58 228 0.9 3.5 0.00 0.00 0.00 74 1020.6
20260507144532 56 308 1.7 3.5 0.00 0.00 0.00 81 1020.5
20260507143145 54 302 0.9 2.6 0.00 0.00 0.00 85 1020.6
20260507141530 51 57 0.0 2.6 0.00 0.00 0.00 89 1020.4
20260507134534 46 68 1.7 3.5 0.00 0.00 0.00 90 1020.1
20260507133145 46 105 2.6 3.5 0.00 0.00 0.00 90 1020.1
20260507131532 46 94 2.6 3.5 0.00 0.00 0.00 90 1020.1
20260507130030 46 47 0.9 3.5 0.00 0.00 0.00 90 1020.0
20260507123108 47 63 1.7 3.5 0.00 0.00 0.00 89 1019.8
20260507120037 47 89 2.6 5.2 0.00 0.00 0.00 87 1019.7
20260507114547 48 47 2.6 5.2 0.00 0.00 0.00 87 1019.6
20260507104545 50 68 3.5 8.7 0.00 0.00 0.00 82 1019.1
20260507103032 51 92 3.5 6.1 0.00 0.00 0.00 79 1019.1
20260507101607 52 112 2.6 7.0 0.00 0.00 0.00 79 1019.1
20260507100039 52 93 0.9 4.3 0.00 0.00 0.00 79 1019.1
20260507094531 53 54 0.9 3.5 0.00 0.00 0.00 79 1019.2
20260507093034 52 17 2.6 6.1 0.00 0.00 0.00 79 1019.3
20260507090108 53 73 2.6 5.2 0.00 0.00 0.00 81 1019.3
20260507084606 53 20 1.7 6.1 0.00 0.00 0.00 81 1019.3
20260507083106 53 16 3.5 6.1 0.00 0.00 0.00 81 1019.4
20260507081531 53 11 3.5 7.0 0.00 0.00 0.00 80 1019.5
20260507080108 53 13 3.5 7.0 0.00 0.00 0.00 80 1019.5
20260507074531 54 3 3.5 6.1 0.00 0.00 0.00 79 1019.5
20260507073032 54 3 3.5 7.0 0.00 0.00 0.00 78 1019.4
20260507071607 53 21 3.5 5.2 0.00 0.00 0.00 77 1019.4
20260507070030 53 237 0.9 3.5 0.00 0.00 0.00 76 1019.5
20260507064533 54 219 1.7 2.6 0.00 0.00 0.00 75 1019.6
20260507061605 56 54 1.7 5.2 0.00 0.00 0.00 68 1019.7
20260507060034 58 62 0.9 4.3 0.00 0.00 0.00 64 1019.8
20260507053031 60 228 5.2 11.3 0.00 0.00 0.00 58 1019.9
20260507051529 60 232 7.0 14.8 0.00 0.00 0.00 58 1019.8
20260507050031 59 234 8.7 16.5 0.00 0.00 0.00 57 1019.8
20260507044533 59 223 4.3 9.6 0.00 0.00 0.00 56 1020.0
20260507043029 59 230 2.6 6.1 0.00 0.00 0.00 56 1020.0
20260507041607 60 257 0.9 5.2 0.00 0.00 0.00 54 1020.0
20260507040050 61 229 1.7 5.2 0.00 0.00 0.00 52 1019.9
20260507034535 62 258 4.3 8.7 0.00 0.00 0.00 51 1019.7
20260507033030 63 270 6.1 15.6 0.00 0.00 0.00 51 1019.6
20260507031537 64 262 7.0 14.8 0.00 0.00 0.00 50 1019.4
20260507030030 64 255 7.8 17.4 0.00 0.00 0.00 50 1019.3
20260507024607 65 252 7.8 15.6 0.00 0.00 0.00 50 1019.3
20260507023029 65 252 7.8 17.4 0.00 0.00 0.00 49 1019.1
20260507021533 66 243 7.0 13.9 0.00 0.00 0.00 48 1019.1
20260507014529 65 230 6.1 17.4 0.00 0.00 0.00 51 1018.9
20260507013031 65 272 4.3 9.6 0.00 0.00 0.00 52 1018.9
20260507011533 66 285 6.1 13.0 0.00 0.00 0.00 50 1018.8
20260507010030 66 288 7.8 15.6 0.00 0.00 0.00 49 1018.7
20260507004531 68 274 8.7 18.2 0.00 0.00 0.00 47 1018.4
20260507001536 68 267 7.0 19.1 0.00 0.00 0.00 46 1018.4
20260507000031 70 278 8.7 14.8 0.00 0.00 0.00 45 1018.3
20260506234531 71 275 7.8 20.9 0.00 0.00 0.00 45 1018.2
20260506233107 72 277 7.0 15.6 0.00 0.00 0.00 44 1018.2
20260506230029 74 269 6.1 13.0 0.00 0.00 0.00 43 1018.4